Location: Newark
(48.0000°N, 67.0000°E)
Time: 00:58:53
(UTC+00:00)

N. Korean satellite - Pass Details

Date: 27 January 2020
Orbit: 456 x 505 km, 97.2° (Epoch: 20 February)

Event Time Altitude Azimuth Distance (km) Brightness Sun altitude
Rises 01:41:35 0° 9° (N) 2,541 10.2 -14.2°
Reaches altitude 10° 01:43:39 10° 6° (N) 1,665 9.2 -13.9°
Maximum altitude 01:47:12 61° 286° (WNW) 556 6.5 -13.3°
Drops below altitude 10° 01:50:45 10° 205° (SSW) 1,679 9.2 -12.7°
Sets 01:52:51 0° 202° (SSW) 2,564 10.2 -12.4°
